Year,Month,Day,Hour,Minute,Value (Times are PST for temperature in C)
2010,08,17,00,00,21.90
2010,08,17,00,01,21.90
2010,08,17,00,02,22.00
2010,08,17,00,03,22.00
2010,08,17,00,04,22.10
2010,08,17,00,05,22.20
2010,08,17,00,06,22.30
2010,08,17,00,07,22.40
2010,08,17,00,08,22.60
2010,08,17,00,09,22.60
2010,08,17,00,10,22.70
2010,08,17,00,11,22.80
2010,08,17,00,12,22.90
2010,08,17,00,13,23.00
2010,08,17,00,14,23.10
2010,08,17,00,15,23.30
2010,08,17,00,16,23.30
2010,08,17,00,17,23.40
2010,08,17,00,18,23.40
2010,08,17,00,19,23.40
2010,08,17,00,20,23.30
2010,08,17,00,21,23.30
2010,08,17,00,22,23.30
2010,08,17,00,23,23.30
2010,08,17,00,24,23.30
2010,08,17,00,25,23.30
2010,08,17,00,26,23.30
2010,08,17,00,27,23.30
2010,08,17,00,28,23.30
2010,08,17,00,29,23.30
2010,08,17,00,30,23.30
2010,08,17,00,31,23.40
2010,08,17,00,32,23.40
2010,08,17,00,33,23.40
2010,08,17,00,34,23.40
2010,08,17,00,35,23.40
2010,08,17,00,36,23.30
2010,08,17,00,37,23.30
2010,08,17,00,38,23.30
2010,08,17,00,39,23.30
2010,08,17,00,40,23.30
2010,08,17,00,41,23.30
2010,08,17,00,42,23.30
2010,08,17,00,43,23.30
2010,08,17,00,44,23.30
2010,08,17,00,45,23.20
2010,08,17,00,46,23.20
2010,08,17,00,47,23.10
2010,08,17,00,48,23.10
2010,08,17,00,49,23.10
2010,08,17,00,50,23.10
2010,08,17,00,51,23.00
2010,08,17,00,52,22.90
2010,08,17,00,53,22.90
2010,08,17,00,54,22.90
2010,08,17,00,55,22.80
2010,08,17,00,56,22.70
2010,08,17,00,57,22.70
2010,08,17,00,58,22.60
2010,08,17,00,59,22.60
2010,08,17,01,00,22.60
2010,08,17,01,01,22.60
2010,08,17,01,02,22.60
2010,08,17,01,03,22.60
2010,08,17,01,04,22.60
2010,08,17,01,05,22.60
2010,08,17,01,06,22.60
2010,08,17,01,07,22.70
2010,08,17,01,08,22.70
2010,08,17,01,09,22.80
2010,08,17,01,10,22.80
2010,08,17,01,11,22.80
2010,08,17,01,12,22.80
2010,08,17,01,13,22.80
2010,08,17,01,14,22.80
2010,08,17,01,15,22.70
2010,08,17,01,16,22.60
2010,08,17,01,17,22.60
2010,08,17,01,18,22.40
2010,08,17,01,19,22.40
2010,08,17,01,20,22.40
2010,08,17,01,21,22.30
2010,08,17,01,22,22.20
2010,08,17,01,23,22.20
2010,08,17,01,24,22.20
2010,08,17,01,25,22.30
2010,08,17,01,26,22.40
2010,08,17,01,27,22.30
2010,08,17,01,28,22.40
2010,08,17,01,29,22.40
2010,08,17,01,30,22.40
2010,08,17,01,31,22.40
2010,08,17,01,32,22.30
2010,08,17,01,33,22.20
2010,08,17,01,34,22.10
2010,08,17,01,35,22.00
2010,08,17,01,36,21.90
2010,08,17,01,37,21.70
2010,08,17,01,38,21.60
2010,08,17,01,39,21.60
2010,08,17,01,40,21.60
2010,08,17,01,41,21.60
2010,08,17,01,42,21.60
2010,08,17,01,43,21.60
2010,08,17,01,44,21.60
2010,08,17,01,45,21.60
2010,08,17,01,46,21.60
2010,08,17,01,47,21.60
2010,08,17,01,48,21.60
2010,08,17,01,49,21.60
2010,08,17,01,50,21.60
2010,08,17,01,51,21.60
2010,08,17,01,52,21.60
2010,08,17,01,53,21.60
2010,08,17,01,54,21.40
2010,08,17,01,55,21.30
2010,08,17,01,56,21.30
2010,08,17,01,57,21.20
2010,08,17,01,58,21.10
2010,08,17,01,59,21.00
2010,08,17,02,00,20.80
2010,08,17,02,01,20.70
2010,08,17,02,02,20.60
2010,08,17,02,03,20.50
2010,08,17,02,04,20.40
2010,08,17,02,05,20.30
2010,08,17,02,06,20.20
2010,08,17,02,07,20.10
2010,08,17,02,08,20.00
2010,08,17,02,09,19.90
2010,08,17,02,10,19.90
2010,08,17,02,11,19.80
2010,08,17,02,12,19.70
2010,08,17,02,13,19.60
2010,08,17,02,14,19.60
2010,08,17,02,15,19.40
2010,08,17,02,16,19.40
2010,08,17,02,17,19.30
2010,08,17,02,18,19.10
2010,08,17,02,19,19.10
2010,08,17,02,20,19.00
2010,08,17,02,21,18.90
2010,08,17,02,22,18.90
2010,08,17,02,23,18.80
2010,08,17,02,24,18.70
2010,08,17,02,25,18.60
2010,08,17,02,26,18.60
2010,08,17,02,27,18.50
2010,08,17,02,28,18.40
2010,08,17,02,29,18.20
2010,08,17,02,30,18.20
2010,08,17,02,31,18.20
2010,08,17,02,32,18.20
2010,08,17,02,33,18.30
2010,08,17,02,34,18.30
2010,08,17,02,35,18.30
2010,08,17,02,36,18.30
2010,08,17,02,37,18.30
2010,08,17,02,38,18.40
2010,08,17,02,39,18.40
2010,08,17,02,40,18.40
2010,08,17,02,41,18.50
2010,08,17,02,42,18.50
2010,08,17,02,43,18.60
2010,08,17,02,44,18.60
2010,08,17,02,45,18.60
2010,08,17,02,46,18.50
2010,08,17,02,47,18.50
2010,08,17,02,48,18.50
2010,08,17,02,49,18.40
2010,08,17,02,50,18.30
2010,08,17,02,51,18.30
2010,08,17,02,52,18.20
2010,08,17,02,53,18.20
2010,08,17,02,54,18.20
2010,08,17,02,55,18.10
2010,08,17,02,56,18.10
2010,08,17,02,57,18.10
2010,08,17,02,58,18.10
2010,08,17,02,59,18.10
2010,08,17,03,00,18.20
2010,08,17,03,01,18.20
2010,08,17,03,02,18.20
2010,08,17,03,03,18.20
2010,08,17,03,04,18.20
2010,08,17,03,05,18.20
2010,08,17,03,06,18.30
2010,08,17,03,07,18.30
2010,08,17,03,08,18.40
2010,08,17,03,09,18.40
2010,08,17,03,10,18.40
2010,08,17,03,11,18.30
2010,08,17,03,12,18.30
2010,08,17,03,13,18.20
2010,08,17,03,14,18.10
2010,08,17,03,15,17.90
2010,08,17,03,16,17.90
2010,08,17,03,17,17.80
2010,08,17,03,18,17.80
2010,08,17,03,19,17.80
2010,08,17,03,20,17.80
2010,08,17,03,21,17.80
2010,08,17,03,22,17.70
2010,08,17,03,23,17.70
2010,08,17,03,24,17.60
2010,08,17,03,25,17.50
2010,08,17,03,26,17.50
2010,08,17,03,27,17.50
2010,08,17,03,28,17.50
2010,08,17,03,29,17.40
2010,08,17,03,30,17.40
2010,08,17,03,31,17.40
2010,08,17,03,32,17.40
2010,08,17,03,33,17.40
2010,08,17,03,34,17.30
2010,08,17,03,35,17.30
2010,08,17,03,36,17.30
2010,08,17,03,37,17.30
2010,08,17,03,38,17.30
2010,08,17,03,39,17.30
2010,08,17,03,40,17.20
2010,08,17,03,41,17.20
2010,08,17,03,42,17.10
2010,08,17,03,43,17.10
2010,08,17,03,44,17.10
2010,08,17,03,45,17.10
2010,08,17,03,46,17.10
2010,08,17,03,47,17.10
2010,08,17,03,48,17.10
2010,08,17,03,49,17.10
2010,08,17,03,50,17.10
2010,08,17,03,51,17.10
2010,08,17,03,52,17.20
2010,08,17,03,53,17.30
2010,08,17,03,54,17.30
2010,08,17,03,55,17.30
2010,08,17,03,56,17.30
2010,08,17,03,57,17.30
2010,08,17,03,58,17.30
2010,08,17,03,59,17.30
2010,08,17,04,00,17.30
2010,08,17,04,01,17.30
2010,08,17,04,02,17.30
2010,08,17,04,03,17.30
2010,08,17,04,04,17.30
2010,08,17,04,05,17.30
2010,08,17,04,06,17.30
2010,08,17,04,07,17.20
2010,08,17,04,08,17.20
2010,08,17,04,09,17.20
2010,08,17,04,10,17.20
2010,08,17,04,11,17.20
2010,08,17,04,12,17.20
2010,08,17,04,13,17.10
2010,08,17,04,14,17.10
2010,08,17,04,15,17.10
2010,08,17,04,16,17.10
2010,08,17,04,17,17.00
2010,08,17,04,18,17.00
2010,08,17,04,19,17.00
2010,08,17,04,20,17.00
2010,08,17,04,21,16.90
2010,08,17,04,22,16.90
2010,08,17,04,23,16.80
2010,08,17,04,24,16.80
2010,08,17,04,25,16.70
2010,08,17,04,26,16.80
2010,08,17,04,27,16.80
2010,08,17,04,28,16.80
2010,08,17,04,29,16.90
2010,08,17,04,30,16.90
2010,08,17,04,31,16.90
2010,08,17,04,32,17.00
2010,08,17,04,33,17.00
2010,08,17,04,34,17.10
2010,08,17,04,35,17.10
2010,08,17,04,36,17.10
2010,08,17,04,37,17.10
2010,08,17,04,38,17.10
2010,08,17,04,39,17.10
2010,08,17,04,40,17.10
2010,08,17,04,41,17.00
2010,08,17,04,42,17.00
2010,08,17,04,43,16.90
2010,08,17,04,44,16.90
2010,08,17,04,45,16.90
2010,08,17,04,46,16.90
2010,08,17,04,47,16.90
2010,08,17,04,48,16.80
2010,08,17,04,49,16.70
2010,08,17,04,50,16.70
2010,08,17,04,51,16.70
2010,08,17,04,52,16.70
2010,08,17,04,53,16.70
2010,08,17,04,54,16.70
2010,08,17,04,55,16.60
2010,08,17,04,56,16.50
2010,08,17,04,57,16.40
2010,08,17,04,58,16.40
2010,08,17,04,59,16.40
2010,08,17,05,00,16.40
2010,08,17,05,01,16.40
2010,08,17,05,02,16.40
2010,08,17,05,03,16.40
2010,08,17,05,04,16.40
2010,08,17,05,05,16.40
2010,08,17,05,06,16.40
2010,08,17,05,07,16.40
2010,08,17,05,08,16.40
2010,08,17,05,09,16.40
2010,08,17,05,10,16.40
2010,08,17,05,11,16.40
2010,08,17,05,12,16.30
2010,08,17,05,13,16.30
2010,08,17,05,14,16.30
2010,08,17,05,15,16.20
2010,08,17,05,16,16.20
2010,08,17,05,17,16.10
2010,08,17,05,18,16.10
2010,08,17,05,19,15.90
2010,08,17,05,20,15.90
2010,08,17,05,21,15.80
2010,08,17,05,22,15.90
2010,08,17,05,23,15.90
2010,08,17,05,24,15.90
2010,08,17,05,25,16.00
2010,08,17,05,26,16.10
2010,08,17,05,27,16.20
2010,08,17,05,28,16.30
2010,08,17,05,29,16.30
2010,08,17,05,30,16.30
2010,08,17,05,31,16.30
2010,08,17,05,32,16.30
2010,08,17,05,33,16.30
2010,08,17,05,34,16.40
2010,08,17,05,35,16.50
2010,08,17,05,36,16.60
2010,08,17,05,37,16.70
2010,08,17,05,38,16.70
2010,08,17,05,39,16.60
2010,08,17,05,40,16.60
2010,08,17,05,41,16.40
2010,08,17,05,42,16.40
2010,08,17,05,43,16.40
2010,08,17,05,44,16.30
2010,08,17,05,45,16.20
2010,08,17,05,46,16.10
2010,08,17,05,47,16.10
2010,08,17,05,48,15.90
2010,08,17,05,49,15.80
2010,08,17,05,50,15.80
2010,08,17,05,51,15.70
2010,08,17,05,52,15.60
2010,08,17,05,53,15.60
2010,08,17,05,54,15.60
2010,08,17,05,55,15.50
2010,08,17,05,56,15.50
2010,08,17,05,57,15.40
2010,08,17,05,58,15.30
2010,08,17,05,59,15.30
2010,08,17,06,00,15.40
2010,08,17,06,01,15.40
2010,08,17,06,02,15.50
2010,08,17,06,03,15.50
2010,08,17,06,04,15.50
2010,08,17,06,05,15.60
2010,08,17,06,06,15.70
2010,08,17,06,07,15.70
2010,08,17,06,08,15.80
2010,08,17,06,09,15.80
2010,08,17,06,10,15.80
2010,08,17,06,11,15.80
2010,08,17,06,12,15.80
2010,08,17,06,13,15.80
2010,08,17,06,14,15.80
2010,08,17,06,15,15.80
2010,08,17,06,16,15.80
2010,08,17,06,17,15.80
2010,08,17,06,18,15.80
2010,08,17,06,19,15.90
2010,08,17,06,20,16.20
2010,08,17,06,21,16.40
2010,08,17,06,22,16.60
2010,08,17,06,23,16.70
2010,08,17,06,24,16.70
2010,08,17,06,25,16.60
2010,08,17,06,26,16.70
2010,08,17,06,27,16.70
2010,08,17,06,28,16.70
2010,08,17,06,29,16.70
2010,08,17,06,30,16.80
2010,08,17,06,31,16.80
2010,08,17,06,32,16.80
2010,08,17,06,33,16.80
2010,08,17,06,34,16.80
2010,08,17,06,35,16.70
2010,08,17,06,36,16.70
2010,08,17,06,37,16.70
2010,08,17,06,38,16.70
2010,08,17,06,39,16.80
2010,08,17,06,40,16.90
2010,08,17,06,41,16.90
2010,08,17,06,42,17.00
2010,08,17,06,43,17.10
2010,08,17,06,44,17.20
2010,08,17,06,45,17.30
2010,08,17,06,46,17.30
2010,08,17,06,47,17.40
2010,08,17,06,48,17.40
2010,08,17,06,49,17.40
2010,08,17,06,50,17.40
2010,08,17,06,51,17.40
2010,08,17,06,52,17.50
2010,08,17,06,53,17.50
2010,08,17,06,54,17.60
2010,08,17,06,55,17.60
2010,08,17,06,56,17.60
2010,08,17,06,57,17.60
2010,08,17,06,58,17.70
2010,08,17,06,59,17.70
2010,08,17,07,00,17.80
2010,08,17,07,01,17.80
2010,08,17,07,02,17.80
2010,08,17,07,03,17.80
2010,08,17,07,04,17.70
2010,08,17,07,05,17.70
2010,08,17,07,06,17.60
2010,08,17,07,07,17.60
2010,08,17,07,08,17.60
2010,08,17,07,09,17.60
2010,08,17,07,10,17.60
2010,08,17,07,11,17.60
2010,08,17,07,12,17.70
2010,08,17,07,13,17.70
2010,08,17,07,14,17.70
2010,08,17,07,15,17.80
2010,08,17,07,16,17.80
2010,08,17,07,17,17.80
2010,08,17,07,18,17.90
2010,08,17,07,19,17.90
2010,08,17,07,20,18.00
2010,08,17,07,21,18.10
2010,08,17,07,22,18.10
2010,08,17,07,23,18.20
2010,08,17,07,24,18.20
2010,08,17,07,25,18.20
2010,08,17,07,26,18.20
2010,08,17,07,27,18.30
2010,08,17,07,28,18.40
2010,08,17,07,29,18.40
2010,08,17,07,30,18.50
2010,08,17,07,31,18.60
2010,08,17,07,32,18.70
2010,08,17,07,33,18.80
2010,08,17,07,34,18.90
2010,08,17,07,35,18.90
2010,08,17,07,36,19.00
2010,08,17,07,37,19.10
2010,08,17,07,38,19.20
2010,08,17,07,39,19.30
2010,08,17,07,40,19.40
2010,08,17,07,41,19.40
2010,08,17,07,42,19.50
2010,08,17,07,43,19.50
2010,08,17,07,44,19.60
2010,08,17,07,45,19.70
2010,08,17,07,46,19.80
2010,08,17,07,47,19.80
2010,08,17,07,48,19.90
2010,08,17,07,49,19.90
2010,08,17,07,50,20.00
2010,08,17,07,51,20.10
2010,08,17,07,52,20.20
2010,08,17,07,53,20.20
2010,08,17,07,54,20.30
2010,08,17,07,55,20.30
2010,08,17,07,56,20.40
2010,08,17,07,57,20.40
2010,08,17,07,58,20.50
2010,08,17,07,59,20.50
2010,08,17,08,00,20.60
2010,08,17,08,01,20.60
2010,08,17,08,02,20.60
2010,08,17,08,03,20.60
2010,08,17,08,04,20.60
2010,08,17,08,05,20.60
2010,08,17,08,06,20.60
2010,08,17,08,07,20.60
2010,08,17,08,08,20.60
2010,08,17,08,09,20.60
2010,08,17,08,10,20.60
2010,08,17,08,11,20.60
2010,08,17,08,12,20.60
2010,08,17,08,13,20.60
2010,08,17,08,14,20.60
2010,08,17,08,15,20.60
2010,08,17,08,16,20.60
2010,08,17,08,17,20.60
2010,08,17,08,18,20.50
2010,08,17,08,19,20.50
2010,08,17,08,20,20.50
2010,08,17,08,21,20.50
2010,08,17,08,22,20.50
2010,08,17,08,23,20.50
2010,08,17,08,24,20.50
2010,08,17,08,25,20.50
2010,08,17,08,26,20.40
2010,08,17,08,27,20.40
2010,08,17,08,28,20.40
2010,08,17,08,29,20.40
2010,08,17,08,30,20.40
2010,08,17,08,31,20.40
2010,08,17,08,32,20.40
2010,08,17,08,33,20.40
2010,08,17,08,34,20.40
2010,08,17,08,35,20.40
2010,08,17,08,36,20.40
2010,08,17,08,37,20.40
2010,08,17,08,38,20.40
2010,08,17,08,39,20.50
2010,08,17,08,40,20.50
2010,08,17,08,41,20.50
2010,08,17,08,42,20.60
2010,08,17,08,43,20.60
2010,08,17,08,44,20.70
2010,08,17,08,45,20.70
2010,08,17,08,46,20.80
2010,08,17,08,47,20.80
2010,08,17,08,48,20.80
2010,08,17,08,49,20.80
2010,08,17,08,50,20.90
2010,08,17,08,51,20.90
2010,08,17,08,52,20.90
2010,08,17,08,53,21.00
2010,08,17,08,54,21.00
2010,08,17,08,55,21.10
2010,08,17,08,56,21.10
2010,08,17,08,57,21.10
2010,08,17,08,58,21.10
2010,08,17,08,59,21.10
2010,08,17,09,00,21.20
2010,08,17,09,01,21.20
2010,08,17,09,02,21.30
2010,08,17,09,03,21.30
2010,08,17,09,04,21.30
2010,08,17,09,05,21.30
2010,08,17,09,06,21.40
2010,08,17,09,07,21.40
2010,08,17,09,08,21.50
2010,08,17,09,09,21.60
2010,08,17,09,10,21.60
2010,08,17,09,11,21.60
2010,08,17,09,12,21.60
2010,08,17,09,13,21.60
2010,08,17,09,14,21.60
2010,08,17,09,15,21.70
2010,08,17,09,16,21.70
2010,08,17,09,17,21.80
2010,08,17,09,18,21.80
2010,08,17,09,19,21.70
2010,08,17,09,20,21.70
2010,08,17,09,21,21.80
2010,08,17,09,22,21.80
2010,08,17,09,23,21.90
2010,08,17,09,24,21.90
2010,08,17,09,25,21.90
2010,08,17,09,26,22.00
2010,08,17,09,27,22.00
2010,08,17,09,28,22.00
2010,08,17,09,29,22.00
2010,08,17,09,30,22.10
2010,08,17,09,31,22.10
2010,08,17,09,32,22.10
2010,08,17,09,33,22.20
2010,08,17,09,34,22.20
2010,08,17,09,35,22.20
2010,08,17,09,36,22.20
2010,08,17,09,37,22.20
2010,08,17,09,38,22.30
2010,08,17,09,39,22.30
2010,08,17,09,40,22.30
2010,08,17,09,41,22.30
2010,08,17,09,42,22.40
2010,08,17,09,43,22.50
2010,08,17,09,44,22.60
2010,08,17,09,45,22.60
2010,08,17,09,46,22.70
2010,08,17,09,47,22.70
2010,08,17,09,48,22.70
2010,08,17,09,49,22.70
2010,08,17,09,50,22.70
2010,08,17,09,51,22.70
2010,08,17,09,52,22.70
2010,08,17,09,53,22.80
2010,08,17,09,54,22.80
2010,08,17,09,55,22.80
2010,08,17,09,56,22.80
2010,08,17,09,57,22.70
2010,08,17,09,58,22.70
2010,08,17,09,59,22.60
2010,08,17,10,00,22.60
2010,08,17,10,01,22.60
2010,08,17,10,02,22.60
2010,08,17,10,03,22.60
2010,08,17,10,04,22.70
2010,08,17,10,05,22.70
2010,08,17,10,06,22.70
2010,08,17,10,07,22.70
2010,08,17,10,08,22.70
2010,08,17,10,09,22.70
2010,08,17,10,10,22.70
2010,08,17,10,11,22.70
2010,08,17,10,12,22.70
2010,08,17,10,13,22.70
2010,08,17,10,14,22.70
2010,08,17,10,15,22.60
2010,08,17,10,16,22.50
2010,08,17,10,17,22.40
2010,08,17,10,18,22.40
2010,08,17,10,19,22.40
2010,08,17,10,20,22.50
2010,08,17,10,21,22.50
2010,08,17,10,22,22.50
2010,08,17,10,23,22.60
2010,08,17,10,24,22.60
2010,08,17,10,25,22.60
2010,08,17,10,26,22.60
2010,08,17,10,27,22.60
2010,08,17,10,28,22.70
2010,08,17,10,29,22.70
2010,08,17,10,30,22.60
2010,08,17,10,31,22.60
2010,08,17,10,32,22.60
2010,08,17,10,33,22.60
2010,08,17,10,34,22.60
2010,08,17,10,35,22.70
2010,08,17,10,36,22.70
2010,08,17,10,37,22.80
2010,08,17,10,38,22.80
2010,08,17,10,39,22.80
2010,08,17,10,40,22.80
2010,08,17,10,41,22.80
2010,08,17,10,42,22.80
2010,08,17,10,43,22.60
2010,08,17,10,44,22.60
2010,08,17,10,45,22.50
2010,08,17,10,46,22.50
2010,08,17,10,47,22.60
2010,08,17,10,48,22.60
2010,08,17,10,49,22.70
2010,08,17,10,50,22.60
2010,08,17,10,51,22.60
2010,08,17,10,52,22.60
2010,08,17,10,53,22.60
2010,08,17,10,54,22.60
2010,08,17,10,55,22.60
2010,08,17,10,56,22.60
2010,08,17,10,57,22.60
2010,08,17,10,58,22.60
2010,08,17,10,59,22.70
2010,08,17,11,00,22.80
2010,08,17,11,01,22.90
2010,08,17,11,02,22.80
2010,08,17,11,03,22.80
2010,08,17,11,04,22.80
2010,08,17,11,05,22.70
2010,08,17,11,06,22.70
2010,08,17,11,07,22.70
2010,08,17,11,08,22.70
2010,08,17,11,09,22.70
2010,08,17,11,10,22.70
2010,08,17,11,11,22.70
2010,08,17,11,12,22.80
2010,08,17,11,13,22.80
2010,08,17,11,14,22.90
2010,08,17,11,15,22.90
2010,08,17,11,16,22.90
2010,08,17,11,17,23.00
2010,08,17,11,18,23.10
2010,08,17,11,19,23.10
2010,08,17,11,20,23.10
2010,08,17,11,21,23.20
2010,08,17,11,22,23.30
2010,08,17,11,23,23.20
2010,08,17,11,24,23.20
2010,08,17,11,25,23.20
2010,08,17,11,26,23.20
2010,08,17,11,27,23.20
2010,08,17,11,28,23.20
2010,08,17,11,29,23.30
2010,08,17,11,30,23.30
2010,08,17,11,31,23.40
2010,08,17,11,32,23.40
2010,08,17,11,33,23.40
2010,08,17,11,34,23.40
2010,08,17,11,35,23.40
2010,08,17,11,36,23.60
2010,08,17,11,37,23.60
2010,08,17,11,38,23.70
2010,08,17,11,39,23.70
2010,08,17,11,40,23.80
2010,08,17,11,41,24.00
2010,08,17,11,42,24.10
2010,08,17,11,43,24.10
2010,08,17,11,44,24.10
2010,08,17,11,45,24.10
2010,08,17,11,46,24.10
2010,08,17,11,47,24.10
2010,08,17,11,48,24.10
2010,08,17,11,49,24.10
2010,08,17,11,50,24.20
2010,08,17,11,51,24.20
2010,08,17,11,52,24.10
2010,08,17,11,53,24.10
2010,08,17,11,54,24.00
2010,08,17,11,55,23.90
2010,08,17,11,56,23.90
2010,08,17,11,57,24.00
2010,08,17,11,58,24.00
2010,08,17,11,59,23.90
2010,08,17,12,00,23.90
2010,08,17,12,01,24.00
2010,08,17,12,02,24.10
2010,08,17,12,03,24.10
2010,08,17,12,04,24.10
2010,08,17,12,05,24.10
2010,08,17,12,06,24.10
2010,08,17,12,07,24.10
2010,08,17,12,08,24.20
2010,08,17,12,09,24.20
2010,08,17,12,10,24.20
2010,08,17,12,11,24.20
2010,08,17,12,12,24.30
2010,08,17,12,13,24.30
2010,08,17,12,14,24.40
2010,08,17,12,15,24.50
2010,08,17,12,16,24.60
2010,08,17,12,17,24.60
2010,08,17,12,18,24.70
2010,08,17,12,19,24.70
2010,08,17,12,20,24.70
2010,08,17,12,21,24.70
2010,08,17,12,22,24.70
2010,08,17,12,23,24.70
2010,08,17,12,24,24.70
2010,08,17,12,25,24.70
2010,08,17,12,26,24.70
2010,08,17,12,27,24.80
2010,08,17,12,28,24.90
2010,08,17,12,29,24.90
2010,08,17,12,30,25.00
2010,08,17,12,31,25.10
2010,08,17,12,32,25.20
2010,08,17,12,33,25.30
2010,08,17,12,34,25.40
2010,08,17,12,35,25.40
2010,08,17,12,36,25.40
2010,08,17,12,37,25.40
2010,08,17,12,38,25.40
2010,08,17,12,39,25.40
2010,08,17,12,40,25.40
2010,08,17,12,41,25.40
2010,08,17,12,42,25.50
2010,08,17,12,43,25.60
2010,08,17,12,44,25.60
2010,08,17,12,45,25.60
2010,08,17,12,46,25.60
2010,08,17,12,47,25.70
2010,08,17,12,48,25.70
2010,08,17,12,49,25.70
2010,08,17,12,50,25.70
2010,08,17,12,51,25.70
2010,08,17,12,52,25.80
2010,08,17,12,53,25.90
2010,08,17,12,54,25.90
2010,08,17,12,55,26.00
2010,08,17,12,56,26.00
2010,08,17,12,57,26.10
2010,08,17,12,58,26.20
2010,08,17,12,59,26.30
2010,08,17,13,00,26.40
2010,08,17,13,01,26.40
2010,08,17,13,02,26.50
2010,08,17,13,03,26.60
2010,08,17,13,04,26.60
2010,08,17,13,05,26.60
2010,08,17,13,06,26.60
2010,08,17,13,07,26.60
2010,08,17,13,08,26.70
2010,08,17,13,09,26.70
2010,08,17,13,10,26.60
2010,08,17,13,11,26.40
2010,08,17,13,12,26.40
2010,08,17,13,13,26.40
2010,08,17,13,14,26.30
2010,08,17,13,15,26.30
2010,08,17,13,16,26.20
2010,08,17,13,17,26.20
2010,08,17,13,18,26.40
2010,08,17,13,19,26.50
2010,08,17,13,20,26.70
2010,08,17,13,21,26.80
2010,08,17,13,22,26.90
2010,08,17,13,23,26.90
2010,08,17,13,24,26.90
2010,08,17,13,25,26.90
2010,08,17,13,26,26.90
2010,08,17,13,27,26.90
2010,08,17,13,28,26.90
2010,08,17,13,29,26.90
2010,08,17,13,30,26.90
2010,08,17,13,31,26.90
2010,08,17,13,32,26.90
2010,08,17,13,33,26.70
2010,08,17,13,34,26.60
2010,08,17,13,35,26.60
2010,08,17,13,36,26.60
2010,08,17,13,37,26.50
2010,08,17,13,38,26.60
2010,08,17,13,39,26.60
2010,08,17,13,40,26.60
2010,08,17,13,41,26.60
2010,08,17,13,42,26.40
2010,08,17,13,43,26.40
2010,08,17,13,44,26.30
2010,08,17,13,45,26.30
2010,08,17,13,46,26.20
2010,08,17,13,47,26.20
2010,08,17,13,48,26.20
2010,08,17,13,49,26.30
2010,08,17,13,50,26.50
2010,08,17,13,51,26.60
2010,08,17,13,52,26.60
2010,08,17,13,53,26.70
2010,08,17,13,54,26.70
2010,08,17,13,55,26.70
2010,08,17,13,56,26.70
2010,08,17,13,57,26.70
2010,08,17,13,58,26.80
2010,08,17,13,59,26.90
2010,08,17,14,00,26.90
2010,08,17,14,01,27.10
2010,08,17,14,02,27.10
2010,08,17,14,03,27.30
2010,08,17,14,04,27.30
2010,08,17,14,05,27.30
2010,08,17,14,06,27.20
2010,08,17,14,07,27.10
2010,08,17,14,08,27.10
2010,08,17,14,09,27.00
2010,08,17,14,10,26.90
2010,08,17,14,11,26.90
2010,08,17,14,12,27.00
2010,08,17,14,13,27.10
2010,08,17,14,14,27.20
2010,08,17,14,15,27.20
2010,08,17,14,16,27.20
2010,08,17,14,17,27.20
2010,08,17,14,18,27.20
2010,08,17,14,19,27.20
2010,08,17,14,20,27.20
2010,08,17,14,21,27.20
2010,08,17,14,22,27.20
2010,08,17,14,23,27.30
2010,08,17,14,24,27.30
2010,08,17,14,25,27.30
2010,08,17,14,26,27.30
2010,08,17,14,27,27.40
2010,08,17,14,28,27.60
2010,08,17,14,29,27.70
2010,08,17,14,30,27.80
2010,08,17,14,31,27.90
2010,08,17,14,32,27.80
2010,08,17,14,33,27.80
2010,08,17,14,34,27.70
2010,08,17,14,35,27.60
2010,08,17,14,36,27.50
2010,08,17,14,37,27.40
2010,08,17,14,38,27.40
2010,08,17,14,39,27.40
2010,08,17,14,40,27.40
2010,08,17,14,41,27.40
2010,08,17,14,42,27.30
2010,08,17,14,43,27.30
2010,08,17,14,44,27.30
2010,08,17,14,45,27.30
2010,08,17,14,46,27.40
2010,08,17,14,47,27.60
2010,08,17,14,48,27.60
2010,08,17,14,49,27.50
2010,08,17,14,50,27.40
2010,08,17,14,51,27.30
2010,08,17,14,52,27.40
2010,08,17,14,53,27.50
2010,08,17,14,54,27.60
2010,08,17,14,55,27.80
2010,08,17,14,56,27.90
2010,08,17,14,57,28.00
2010,08,17,14,58,28.00
2010,08,17,14,59,28.00
2010,08,17,15,00,28.10
2010,08,17,15,01,28.10
2010,08,17,15,02,28.10
2010,08,17,15,03,28.10
2010,08,17,15,04,28.20
2010,08,17,15,05,28.20
2010,08,17,15,06,28.10
2010,08,17,15,07,28.10
2010,08,17,15,08,28.10
2010,08,17,15,09,28.20
2010,08,17,15,10,28.20
2010,08,17,15,11,28.30
2010,08,17,15,12,28.30
2010,08,17,15,13,28.30
2010,08,17,15,14,28.30
2010,08,17,15,15,28.40
2010,08,17,15,16,28.40
2010,08,17,15,17,28.50
2010,08,17,15,18,28.50
2010,08,17,15,19,28.40
2010,08,17,15,20,28.30
2010,08,17,15,21,28.30
2010,08,17,15,22,28.30
2010,08,17,15,23,28.30
2010,08,17,15,24,28.30
2010,08,17,15,25,28.30
2010,08,17,15,26,28.30
2010,08,17,15,27,28.20
2010,08,17,15,28,28.10
2010,08,17,15,29,28.10
2010,08,17,15,30,28.00
2010,08,17,15,31,28.00
2010,08,17,15,32,27.90
2010,08,17,15,33,27.60
2010,08,17,15,34,27.50
2010,08,17,15,35,27.40
2010,08,17,15,36,27.40
2010,08,17,15,37,27.50
2010,08,17,15,38,27.60
2010,08,17,15,39,27.50
2010,08,17,15,40,27.50
2010,08,17,15,41,27.60
2010,08,17,15,42,27.60
2010,08,17,15,43,27.60
2010,08,17,15,44,27.70
2010,08,17,15,45,27.80
2010,08,17,15,46,27.90
2010,08,17,15,47,28.00
2010,08,17,15,48,28.10
2010,08,17,15,49,28.10
2010,08,17,15,50,28.10
2010,08,17,15,51,28.10
2010,08,17,15,52,28.00
2010,08,17,15,53,28.00
2010,08,17,15,54,27.80
2010,08,17,15,55,27.70
2010,08,17,15,56,27.60
2010,08,17,15,57,27.60
2010,08,17,15,58,27.70
2010,08,17,15,59,27.70
2010,08,17,16,00,27.80
2010,08,17,16,01,27.90
2010,08,17,16,02,27.90
2010,08,17,16,03,27.90
2010,08,17,16,04,28.10
2010,08,17,16,05,28.20
2010,08,17,16,06,28.20
2010,08,17,16,07,28.10
2010,08,17,16,08,28.10
2010,08,17,16,09,28.10
2010,08,17,16,10,28.10
2010,08,17,16,11,28.10
2010,08,17,16,12,28.20
2010,08,17,16,13,28.20
2010,08,17,16,14,28.30
2010,08,17,16,15,28.40
2010,08,17,16,16,28.30
2010,08,17,16,17,28.30
2010,08,17,16,18,28.30
2010,08,17,16,19,28.30
2010,08,17,16,20,28.50
2010,08,17,16,21,28.60
2010,08,17,16,22,28.60
2010,08,17,16,23,28.60
2010,08,17,16,24,28.60
2010,08,17,16,25,28.60
2010,08,17,16,26,28.60
2010,08,17,16,27,28.70
2010,08,17,16,28,28.60
2010,08,17,16,29,28.60
2010,08,17,16,30,28.60
2010,08,17,16,31,28.60
2010,08,17,16,32,28.50
2010,08,17,16,33,28.40
2010,08,17,16,34,28.50
2010,08,17,16,35,28.60
2010,08,17,16,36,28.70
2010,08,17,16,37,28.70
2010,08,17,16,38,28.80
2010,08,17,16,39,28.80
2010,08,17,16,40,28.90
2010,08,17,16,41,28.90
2010,08,17,16,42,28.90
2010,08,17,16,43,28.90
2010,08,17,16,44,28.90
2010,08,17,16,45,28.90
2010,08,17,16,46,28.90
2010,08,17,16,47,28.90
2010,08,17,16,48,28.90
2010,08,17,16,49,29.00
2010,08,17,16,50,29.10
2010,08,17,16,51,29.20
2010,08,17,16,52,29.20
2010,08,17,16,53,29.20
2010,08,17,16,54,29.10
2010,08,17,16,55,29.00
2010,08,17,16,56,28.80
2010,08,17,16,57,28.70
2010,08,17,16,58,28.60
2010,08,17,16,59,28.50
2010,08,17,17,00,28.40
2010,08,17,17,01,28.30
2010,08,17,17,02,28.20
2010,08,17,17,03,28.00
2010,08,17,17,04,27.90
2010,08,17,17,05,27.70
2010,08,17,17,06,27.70
2010,08,17,17,07,27.60
2010,08,17,17,08,27.60
2010,08,17,17,09,27.40
2010,08,17,17,10,27.50
2010,08,17,17,11,27.60
2010,08,17,17,12,27.60
2010,08,17,17,13,27.70
2010,08,17,17,14,27.70
2010,08,17,17,15,27.80
2010,08,17,17,16,27.90
2010,08,17,17,17,28.00
2010,08,17,17,18,28.00
2010,08,17,17,19,28.10